Погода в Са-Коме

Испания     39°34′36″N   3°22′37″E
темп.,
°C
ветер,
м/с
пор.,
м/с
влажн.,
%
обл.,
%
осадки,
мм/ч
давл.,
гПа
погр.,
м
14 мая, пт
пт1423:00+18юз7976100 0.0 1013350
02:00+18юз7107893 0.0 1012350
05:00+18юз71083100 0.0 1010435
08:00+18с71181100 0.2 1011690
11:00+17ссв898058 0.1 1013888
14:00+16ссв7763100 0.4 10161036
17:00+16всв5557100 0.0 1016593
20:00+17ююв545892 0.0 1017607
15 мая, сб
сб1523:00+17ю886497 0.0 1018666
02:00+17юз8973100 0.0 1017561
05:00+17юз7874100 0.0 1016447
08:00+17юз6980100 0.0 1016414
11:00+18ююз81172100 0.0 1016333
14:00+18ююз101373100 0.0 1015376
17:00+19юз101372100 0.0 1013259
20:00+19юз71076100 0.0 1012163
16 мая, вс
вс1623:00+18юз798290 0.0 1013148
02:00+18юз711824 0.0 1012194
05:00+18зюз458020 0.0 101177
08:00+19зюз227518 0.0 101217
11:00+19ю447798 0.0 101361
14:00+20ю5783100 0.0 1012123
17:00+21ююз567494 0.0 101197
20:00+20св34836 0.0 101173
17 мая, пн
пн1723:00+20ссв448415 0.0 101347
02:00+18св911880 0.0 1014327
05:00+17св8108466 0.0 1014485
08:00+17св9108362 0.0 1016617
11:00+18св910705 0.0 1017637
14:00+18св786873 0.0 1018646
17:00+18св786944 0.0 1018674
20:00+18св7770100 0.0 1019630
18 мая, вт
вт1823:00+17всв6768100 0.0 1020526
02:00+17св58676 0.0 1021712
05:00+17св786361 0.0 1022748
08:00+17всв776621 0.0 1023699
11:00+17св656553 0.0 1024642
14:00+17всв446698 0.0 1024639
17:00+17в326749 0.0 1023510
20:00+17в3368100 0.0 1023490